[[{"header":{"parameterUnit":"m.s-1","parameterCategory":1,"la1":30.2991,"la2":30.254,"lo1":-89.0895,"lo2":-89.0444,"dy":0.0017,"dx":0.0017,"nx":28,"ny":28,"refTime":"2023-03-17T21:00:00:Z","depth":0,"parameterNumber":2,"parameterNumberName":"U-component_of_WINDS"},"data":[0,0,0,0,0,0,0,0,0,0,0,0,0,0,0,0,0,0,0,0,0,0,0,0,0,0,0,0,0,0,0,0,0,0,0,0,0,0,0,0,0,0,0,0,0,0,0,0,0,0,0,0,0,0,0,0,0,0,-0.6512,-0.6512,0,-0.6542,-0.6542,-0.6543,-0.652,-0.6519,-0.6518,-0.6517,-0.6549,-0.6551,-0.6553,0,0,0,0,0,0,0,0,0,0,0,0,0,-0.6434,-0.6436,-0.6512,-0.6512,-0.6512,-0.6542,-0.6542,-0.6543,-0.652,-0.6519,-0.6517,-0.6516,-0.6549,-0.6551,-0.6553,0,0,0,0,0,0,0,0,0,0,0,0,0,-0.6466,-0.6436,-0.6511,-0.6504,-0.6504,-0.6542,-0.6542,-0.6543,-0.652,-0.6519,-0.6517,-0.6516,-0.6548,-0.6551,-0.6553,-0.66,0,0,-0.6562,-0.6563,0,0,0,0,0,0,0,0,-0.6465,-0.6469,-0.6505,-0.6505,-0.6505,-0.6525,-0.6527,-0.6562,-0.652,-0.6514,-0.6517,-0.6515,-0.6543,-0.6546,-0.6555,-0.6602,-0.6603,-0.6562,-0.6564,-0.6565,-0.6566,0,0,0,0,0,0,0,-0.6462,-0.6468,-0.6524,-0.6506,-0.6505,-0.65,-0.6503,-0.6533,-0.6537,-0.6515,-0.6513,-0.6517,-0.6542,-0.6552,-0.6556,-0.6604,-0.6562,-0.6564,-0.6566,-0.6567,-0.6689,-0.669,0,0,0,0,0,0,-0.6461,-0.6466,-0.6523,-0.6524,-0.648,-0.6502,-0.6506,-0.652,-0.6536,-0.6537,-0.6518,-0.6516,-0.6548,-0.6552,-0.6557,-0.6612,-0.6565,-0.6567,-0.6569,-0.6687,-0.6689,-0.6691,0,0,0,0,0,0,-0.6459,-0.6466,-0.6521,-0.6495,-0.6501,-0.6505,-0.6522,-0.6522,-0.6532,-0.6539,-0.6539,-0.6528,-0.6547,-0.6553,-0.6589,-0.6613,-0.6569,-0.6571,-0.6685,-0.6688,-0.669,-0.6723,0,0,0,0,0,0,-0.6457,-0.6466,-0.6484,-0.6495,-0.6503,-0.6554,-0.6523,-0.6523,-0.6536,-0.6533,-0.6548,-0.6549,-0.6547,-0.6585,-0.6592,-0.6616,-0.6573,-0.6683,-0.6686,-0.6689,-0.672,-0.6726,-0.6732,0,0,0,0,0,-0.6454,-0.6492,-0.6485,-0.6492,-0.6526,-0.6555,-0.6559,-0.6556,-0.6538,-0.6556,-0.656,-0.6548,-0.6609,-0.6589,-0.6596,-0.6621,-0.6682,-0.6686,-0.6689,-0.6717,-0.6725,-0.6732,0,0,0,0,0,0,-0.6484,-0.6494,-0.6485,-0.6528,-0.6541,-0.6551,-0.6574,-0.6564,-0.6583,-0.6579,-0.6574,-0.6577,-0.6615,-0.6622,-0.66,-0.6667,-0.6642,-0.6648,-0.6661,-0.6669,-0.6675,-0.6673,-0.6575,0,0,0,0,0,-0.6496,-0.6519,-0.6526,-0.6563,-0.657,-0.6571,-0.6583,-0.6579,-0.6592,-0.6598,-0.6605,-0.6618,-0.664,-0.6654,-0.6675,-0.672,-0.6723,-0.6741,-0.6746,-0.6751,-0.6756,-0.678,-0.6788,-0.6703,-0.6703,-0.6703,0,0,-0.652,-0.6528,-0.6543,-0.6569,-0.6578,-0.6602,-0.6575,-0.6602,-0.662,-0.6602,-0.6637,-0.6642,-0.6656,-0.6697,-0.6715,-0.6703,-0.678,-0.6756,-0.676,-0.6762,-0.6784,-0.6792,-0.6799,-0.6705,-0.6705,-0.6704,0,0,-0.6577,-0.6585,-0.6617,-0.6626,-0.664,-0.664,-0.6647,-0.6658,-0.6661,-0.6695,-0.6682,-0.6702,-0.674,-0.6751,-0.6761,-0.6819,-0.6808,-0.6826,-0.6857,-0.688,-0.6887,-0.6893,-0.6913,-0.6921,-0.683,-0.683,-0.683,0,-0.6606,-0.6641,-0.6634,-0.6661,-0.6673,-0.6656,-0.6688,-0.6697,-0.6717,-0.6726,-0.6712,-0.6758,-0.6766,-0.6809,-0.6823,-0.6831,-0.684,-0.6825,-0.6886,-0.6892,-0.6897,-0.6917,-0.6925,-0.6832,-0.6832,-0.6832,-0.6832,0,-0.6676,-0.67,-0.6724,-0.6742,-0.6756,-0.6786,-0.6783,-0.6798,-0.6792,-0.6793,-0.6827,-0.6837,-0.6858,-0.6868,-0.6862,-0.6909,-0.6901,-0.6887,-0.6863,-0.6908,-0.6926,-0.6933,-0.6835,-0.6834,-0.6834,-0.6833,0,0,-0.6755,-0.6767,-0.6776,-0.6784,-0.6796,-0.6815,-0.6843,-0.6863,-0.6876,-0.6889,-0.6913,-0.6944,-0.693,-0.6942,-0.6937,-0.6957,-0.7001,-0.694,-0.694,-0.6951,-0.7053,-0.7064,-0.7073,-0.6994,-0.6995,-0.6996,-0.7052,0,-0.6812,-0.6861,-0.6854,-0.6901,-0.6923,-0.6905,-0.693,-0.694,-0.6941,-0.696,-0.6961,-0.6984,-0.6964,-0.697,-0.6989,-0.6992,-0.7022,-0.6988,-0.7016,-0.7017,-0.7014,-0.7082,-0.7095,-0.7147,-0.7059,-0.706,-0.7061,0,-0.6887,-0.6901,-0.695,-0.6957,-0.6966,-0.6988,-0.7005,-0.7023,-0.7034,-0.7033,-0.7045,-0.7036,-0.7064,-0.7038,-0.7075,-0.7052,-0.7063,-0.7066,-0.7067,-0.7071,-0.7042,-0.7088,-0.7164,-0.7172,-0.7072,-0.7071,-0.707,0,-0.694,-0.6972,-0.7004,-0.7011,-0.7021,-0.7037,-0.7041,-0.705,-0.7062,-0.7077,-0.7084,-0.7102,-0.7113,-0.7126,-0.7122,-0.7104,-0.7161,-0.7135,-0.7161,-0.7161,-0.7175,-0.7175,-0.7254,-0.7181,-0.7181,-0.718,-0.718,0,-0.7005,-0.7036,-0.7028,-0.7049,-0.7081,-0.7073,-0.7106,-0.7109,-0.7116,-0.7137,-0.7123,-0.7142,-0.7135,-0.7154,-0.7151,-0.7182,-0.7187,-0.7187,-0.7186,-0.7189,-0.7189,-0.7197,-0.7193,-0.7183,-0.7182,-0.7182,-0.7181,0,-0.7071,-0.7067,-0.7102,-0.7107,-0.7109,-0.7133,-0.7138,-0.7157,-0.7155,-0.7181,-0.7187,-0.7186,-0.7207,-0.7204,-0.7228,-0.7225,-0.7264,-0.7259,-0.7261,-0.726,-0.7287,-0.7284,-0.7374,-0.7386,-0.7305,-0.7305,-0.7306,0,-0.7114,-0.7136,-0.7143,-0.7155,-0.7161,-0.7181,-0.7192,-0.7184,-0.7197,-0.7209,-0.7226,-0.7246,-0.7261,-0.7296,-0.7297,-0.7315,-0.731,-0.734,-0.7313,-0.7314,-0.7311,-0.731,-0.7312,-0.7346,-0.7347,-0.7348,-0.7349,0,-0.719,-0.7186,-0.7203,-0.7219,-0.7232,-0.7245,-0.7255,-0.7266,-0.7259,-0.7273,-0.7294,-0.7306,-0.7329,-0.7349,-0.7365,-0.737,-0.7358,-0.7357,-0.7364,-0.7368,-0.7368,-0.7368,-0.7276,-0.7355,-0.7355,-0.7354,-0.7354,-0.7353,-0.7246,-0.7265,-0.7272,-0.7291,-0.7297,-0.7307,-0.7325,-0.7325,-0.7342,-0.736,-0.7354,-0.7377,-0.7386,-0.7406,-0.7412,-0.743,-0.7419,-0.743,-0.7432,-0.7435,-0.7439,-0.7364,-0.7433,-0.7433,-0.7433,-0.7433,-0.7432,0,-0.7321,-0.7325,-0.7342,-0.7356,-0.7371,-0.7357,-0.7367,-0.738,-0.7401,-0.7409,-0.7424,-0.7447,-0.7466,-0.7467,-0.7485,-0.7499,-0.7494,-0.7504,-0.7503,-0.7504,-0.7448,-0.744,-0.7507,-0.7507,-0.7507,-0.7507,-0.7507,-0.7507,-0.7363,-0.7393,-0.739,-0.7424,-0.7427,-0.7449,-0.7456,-0.7465,-0.7471,-0.7498,-0.7512,-0.7513,-0.7518,-0.7535,-0.7551,-0.7551,-0.7558,-0.757,-0.7568,-0.7516,-0.7508,-0.7501,-0.7494,-0.7572,-0.7572,-0.7623,-0.7624,-0.7624]},{"header":{"parameterUnit":"m.s-1","parameterCategory":1,"la1":30.2991,"la2":30.254,"lo1":-89.0895,"lo2":-89.0444,"dy":0.0017,"dx":0.0017,"nx":28,"ny":28,"refTime":"2023-03-17T21:00:00:Z","depth":0,"parameterNumber":3,"parameterNumberName":"V-component_of_WINDS"},"data":[0,0,0,0,0,0,0,0,0,0,0,0,0,0,0,0,0,0,0,0,0,0,0,0,0,0,0,0,0,0,0,0,0,0,0,0,0,0,0,0,0,0,0,0,0,0,0,0,0,0,0,0,0,0,0,0,0,0,-8.6227,-8.6229,0,-8.6384,-8.6386,-8.6388,-8.6307,-8.6303,-8.6299,-8.6295,-8.6448,-8.6456,-8.6464,0,0,0,0,0,0,0,0,0,0,0,0,0,-8.585,-8.5858,-8.6227,-8.6229,-8.6231,-8.6384,-8.6386,-8.6388,-8.6308,-8.6302,-8.6297,-8.6293,-8.6446,-8.6455,-8.6465,0,0,0,0,0,0,0,0,0,0,0,0,0,-8.6011,-8.586,-8.6227,-8.6209,-8.6209,-8.6383,-8.6386,-8.6389,-8.6309,-8.6302,-8.6296,-8.629,-8.6442,-8.6454,-8.6466,-8.6664,0,0,-8.6502,-8.6507,0,0,0,0,0,0,0,0,-8.6002,-8.6025,-8.621,-8.6211,-8.6211,-8.632,-8.6309,-8.6481,-8.631,-8.6271,-8.6294,-8.6287,-8.641,-8.6424,-8.6467,-8.6671,-8.6677,-8.6503,-8.6511,-8.6516,-8.6519,0,0,0,0,0,0,0,-8.5991,-8.6018,-8.6289,-8.6213,-8.6214,-8.6191,-8.6207,-8.6341,-8.6373,-8.6274,-8.6268,-8.6288,-8.6409,-8.6456,-8.647,-8.668,-8.6503,-8.6514,-8.6521,-8.6526,-8.7052,-8.7058,0,0,0,0,0,0,-8.5982,-8.6009,-8.6284,-8.6294,-8.609,-8.6203,-8.6221,-8.6291,-8.6371,-8.6378,-8.6293,-8.6284,-8.6438,-8.6456,-8.6475,-8.6711,-8.6516,-8.6527,-8.6534,-8.7045,-8.7053,-8.7061,0,0,0,0,0,0,-8.5974,-8.6007,-8.6278,-8.615,-8.6183,-8.6216,-8.6295,-8.6297,-8.6344,-8.6386,-8.6391,-8.6336,-8.6434,-8.6458,-8.6618,-8.6716,-8.6532,-8.6543,-8.7037,-8.7048,-8.7057,-8.7186,0,0,0,0,0,0,-8.5964,-8.6005,-8.6082,-8.6152,-8.619,-8.642,-8.6302,-8.6305,-8.6366,-8.6355,-8.6427,-8.6433,-8.6431,-8.66,-8.6629,-8.6729,-8.6552,-8.7028,-8.7042,-8.7054,-8.7173,-8.72,-8.7222,0,0,0,0,0,-8.595,-8.6111,-8.6087,-8.612,-8.6288,-8.6426,-8.6447,-8.6444,-8.6374,-8.6451,-8.6478,-8.6431,-8.67,-8.6617,-8.6649,-8.6754,-8.7022,-8.7038,-8.7053,-8.7162,-8.7194,-8.7222,0,0,0,0,0,0,-8.6049,-8.612,-8.6094,-8.6282,-8.6349,-8.6412,-8.6509,-8.6478,-8.6564,-8.655,-8.6539,-8.6556,-8.6722,-8.6753,-8.666,-8.6949,-8.685,-8.6873,-8.6922,-8.6953,-8.6977,-8.6966,-8.6562,0,0,0,0,0,-8.6093,-8.6202,-8.6257,-8.6418,-8.6453,-8.6476,-8.6536,-8.6527,-8.6595,-8.6622,-8.6661,-8.6726,-8.6825,-8.6891,-8.6984,-8.7177,-8.7191,-8.7265,-8.7289,-8.7309,-8.7328,-8.7431,-8.7465,-8.7111,-8.7111,-8.7111,0,0,-8.6184,-8.6236,-8.6305,-8.6439,-8.649,-8.66,-8.65,-8.6621,-8.6702,-8.6639,-8.6793,-8.6824,-8.6896,-8.7073,-8.7152,-8.7104,-8.7429,-8.7328,-8.7344,-8.7353,-8.7451,-8.7484,-8.7514,-8.7122,-8.712,-8.7118,0,0,-8.6408,-8.6459,-8.6598,-8.6652,-8.6731,-8.6745,-8.6778,-8.6847,-8.6865,-8.702,-8.6975,-8.7069,-8.7241,-8.7294,-8.7344,-8.7587,-8.7546,-8.7617,-8.7744,-8.7845,-8.7873,-8.7897,-8.7983,-8.8014,-8.7636,-8.7637,-8.7637,0,-8.6511,-8.6678,-8.6673,-8.6799,-8.6858,-8.6808,-8.6948,-8.6999,-8.7104,-8.7145,-8.709,-8.7304,-8.7349,-8.7537,-8.7597,-8.7638,-8.7675,-8.7609,-8.787,-8.7894,-8.7917,-8.7999,-8.8031,-8.7645,-8.7644,-8.7643,-8.7642,0,-8.68,-8.6917,-8.702,-8.7125,-8.7195,-8.7327,-8.734,-8.7412,-8.7397,-8.7416,-8.7572,-8.7625,-8.7728,-8.7772,-8.7758,-8.7958,-8.7926,-8.7871,-8.7771,-8.7959,-8.8036,-8.8067,-8.7656,-8.7653,-8.7651,-8.7649,0,0,-8.709,-8.7191,-8.7229,-8.7276,-8.7359,-8.7448,-8.7576,-8.768,-8.7741,-8.7814,-8.792,-8.8067,-8.8016,-8.8072,-8.8063,-8.8152,-8.834,-8.8086,-8.8087,-8.8131,-8.8563,-8.8604,-8.864,-8.8314,-8.832,-8.8325,-8.8557,0,-8.7319,-8.7547,-8.7546,-8.7756,-8.7863,-8.7817,-8.7929,-8.799,-8.8012,-8.8103,-8.8124,-8.8228,-8.8154,-8.8188,-8.8274,-8.8299,-8.8427,-8.8283,-8.8411,-8.8416,-8.8395,-8.8681,-8.8724,-8.8941,-8.8587,-8.8592,-8.8595,0,-8.7616,-8.7702,-8.7924,-8.7991,-8.8036,-8.8137,-8.8231,-8.832,-8.8388,-8.8396,-8.846,-8.8437,-8.8565,-8.8462,-8.8638,-8.854,-8.8592,-8.8612,-8.862,-8.8632,-8.8517,-8.8699,-8.901,-8.9042,-8.8643,-8.8639,-8.8635,0,-8.7805,-8.7976,-8.813,-8.8171,-8.8254,-8.8326,-8.8363,-8.8425,-8.8487,-8.8568,-8.8608,-8.8702,-8.8754,-8.8826,-8.8828,-8.8753,-8.9005,-8.8903,-8.9014,-8.9014,-8.9069,-8.9066,-8.9392,-8.9104,-8.9103,-8.9102,-8.9102,0,-8.8061,-8.8198,-8.8216,-8.8311,-8.8462,-8.8459,-8.8608,-8.8638,-8.8694,-8.8792,-8.8757,-8.8849,-8.8846,-8.8939,-8.8942,-8.9086,-8.9109,-8.9118,-8.9117,-8.9122,-8.9121,-8.9155,-8.914,-8.9111,-8.9109,-8.9107,-8.9106,0,-8.8297,-8.8316,-8.8481,-8.8546,-8.8565,-8.8674,-8.8728,-8.8817,-8.8835,-8.8959,-8.8988,-8.9015,-8.9123,-8.9132,-8.9256,-8.9258,-8.9432,-8.9415,-8.941,-8.9407,-8.9518,-8.9507,-8.9878,-8.9926,-8.9607,-8.961,-8.9612,0,-8.8459,-8.8564,-8.8641,-8.8705,-8.8747,-8.8851,-8.8915,-8.8914,-8.8981,-8.9067,-8.9145,-8.925,-8.9334,-8.9507,-8.9536,-8.963,-8.9615,-8.9738,-8.9628,-8.9629,-8.9616,-8.961,-8.9619,-8.9759,-8.9763,-8.9766,-8.9768,0,-8.8745,-8.8748,-8.8843,-8.8941,-8.9018,-8.9094,-8.9165,-8.9219,-8.9227,-8.9304,-8.9415,-8.948,-8.9607,-8.9711,-8.9804,-8.9838,-8.9805,-8.9802,-8.9833,-8.9839,-8.9832,-8.9836,-8.9468,-8.9794,-8.9791,-8.9789,-8.9788,-8.9787,-8.8948,-8.9039,-8.9108,-8.9214,-8.9267,-8.9335,-8.9422,-8.9451,-8.9545,-8.965,-8.9643,-8.9766,-8.9829,-8.995,-8.9993,-9.0086,-9.0044,-9.0089,-9.01,-9.0111,-9.0123,-8.9817,-9.0103,-9.0102,-9.0101,-9.0101,-9.01,0,-8.9231,-8.9273,-8.9371,-8.9473,-8.9556,-8.9519,-8.9595,-8.9666,-8.9775,-8.9839,-8.9922,-9.0049,-9.0149,-9.0187,-9.0284,-9.0351,-9.0338,-9.0377,-9.0372,-9.038,-9.0155,-9.0118,-9.0386,-9.0386,-9.0386,-9.0386,-9.0386,-9.0386,-8.9389,-8.954,-8.9552,-8.9729,-8.9769,-8.9891,-8.9937,-8.9998,-9.0049,-9.0193,-9.0277,-9.0302,-9.0354,-9.0455,-9.0544,-9.0552,-9.0589,-9.0635,-9.0636,-9.0425,-9.0396,-9.0368,-9.0334,-9.0643,-9.0643,-9.0853,-9.0855,-9.0857]}]]